Presure
219 269 245 264 201 225 152 122 249 294 342 483 522 486 471 471 515 419 408 438 499 539 589 614 608 587 559
270 213 214 213 220 233 255 260 349 516 506 448 449 427 450 477 479 432 434 374 378 405 492 503 561 569 558
214 201 170 226 241 257 346 529 504 477 438 398 392 381 376 354 344 345 342 344 343 344 356 370 391 487 548
211 223 236 246 305 458 520 475 434 412 376 361 369 357 336 331 329 324 329 340 350 352 359 365 356 367 414
230 240 251 342 576 484 445 403 382 376 339 340 360 340 326 321 320 316 316 314 323 336 344 356 368 368 355
250 333 463 538 448 413 391 373 356 357 334 345 343 326 316 309 318 316 312 315 310 348 356 354 369 369 366
344 522 498 426 402 376 376 355 346 337 329 323 313 318 317 311 310 311 315 316 308 391 380 380 374 369 370
474 467 414 391 385 364 343 329 325 340 317 308 309 307 304 305 310 307 310 358 381 410 370 369 366 368 371
438 399 379 388 366 337 324 319 318 326 321 313 311 315 303 305 308 304 384 371 390 369 378 400 443 452 436
385 374 378 366 341 332 328 317 314 313 311 306 308 302 304 301 303 324 376 386 384 393 356 355 341 341 342
363 357 343 339 327 330 324 311 298 304 305 302 298 305 294 297 293 344 371 371 364 346 334 334 342 352 361
357 349 350 333 320 311 297 295 286 278 293 297 300 303 297 288 304 360 362 367 346 327 325 318 363 398 434
318 312 310 313 305 305 304 296 285 286 281 288 298 301 289 289 316 375 351 350 360 326 320 371 391 418 363
315 318 316 317 307 309 305 302 309 291 272 271 297 297 288 291 319 368 361 340 313 346 365 378 382 359 371
360 263 253 330 323 319 319 313 305 314 287 276 296 295 293 303 339 371 372 296 298 365 372 379 383 375 385
249 247 325 417 417 419 428 366 367 314 265 276 300 293 294 313 372 368 312 284 290 354 372 379 370 385 381
385 389 390 400 395 396 411 428 357 313 267 267 299 295 302 325 373 342 291 308 304 391 384 369 379 389 379
Wind_Speed
117 114 121 117 99 111 81 76 127 137 136 81 57 58 55 56 45 57 58 52 50 46 47 52 59 67 77
109 100 106 109 114 124 131 134 136 59 53 53 49 51 51 39 35 36 39 48 47 44 41 42 46 54 64
98 100 95 121 127 134 134 53 51 49 50 46 50 42 40 42 44 43 47 48 50 50 46 45 42 38 49
104 115 124 130 134 89 42 44 47 47 43 46 41 38 42 39 40 42 46 47 46 45 45 45 44 41 38
119 125 133 131 39 40 38 42 48 35 42 49 36 33 37 37 39 44 45 47 46 47 48 47 45 43 39
130 129 75 35 37 40 38 37 41 36 34 41 28 34 33 39 38 42 45 45 45 46 47 47 46 44 43
125 46 36 38 37 38 33 32 34 34 29 41 35 36 35 39 41 44 45 47 47 45 42 41 41 42 41
53 37 37 37 30 28 31 36 39 30 27 37 36 37 41 42 43 46 48 45 41 35 37 36 36 36 36
39 40 40 32 24 30 34 34 38 36 26 31 33 34 36 40 44 45 45 41 34 33 28 28 27 26 26
43 39 34 28 30 30 25 30 31 40 30 35 32 35 35 39 42 51 41 33 31 31 28 25 27 30 34
42 38 38 34 32 28 24 26 31 35 34 36 35 31 36 41 39 50 34 28 27 26 25 27 28 28 30
43 43 38 36 33 31 30 28 27 36 35 32 35 33 35 36 40 42 37 29 22 25 24 25 30 30 27
47 45 42 39 38 38 33 31 28 29 33 32 34 31 35 35 43 33 31 32 29 25 26 29 30 28 30
54 52 50 48 44 41 40 36 35 26 29 29 31 30 32 33 39 31 29 23 28 27 29 31 30 30 32
53 46 43 51 50 47 45 39 32 32 21 27 30 28 30 35 39 27 27 21 24 26 27 29 29 28 29
43 44 39 30 29 28 25 31 29 25 18 22 25 26 27 31 26 26 18 22 24 25 26 27 26 25 24
40 37 34 29 26 24 21 19 21 20 16 17 21 23 25 30 19 16 18 21 21 23 21 23 25 24 22
Wind_Direction
298 299 297 296 294 301 290 291 298 296 293 294 295 294 291 287 294 280 278 282 284 285 279 269 262 258 255
299 297 298 302 302 303 301 299 297 296 295 296 297 290 289 296 294 288 286 282 284 287 288 281 271 261 255
300 303 299 304 303 301 299 296 296 296 297 296 291 297 294 292 288 288 284 282 280 280 279 281 285 274 259
306 306 305 303 302 302 297 294 295 296 298 290 294 293 289 289 294 291 286 289 291 289 288 282 273 275 274
308 307 305 304 306 299 296 293 295 301 295 291 300 288 290 291 286 285 289 289 291 290 288 288 284 274 262
307 305 307 306 299 295 296 296 297 303 297 295 304 288 289 290 294 292 291 289 287 294 288 282 278 272 266
308 309 307 301 298 296 296 293 293 298 296 292 301 298 297 298 299 297 300 294 291 296 286 280 273 269 264
311 310 306 302 297 291 296 300 301 304 289 293 294 295 297 301 303 303 305 302 301 299 290 282 273 268 262
310 308 304 299 291 295 299 298 300 302 299 294 295 298 297 302 305 306 318 312 309 302 297 296 301 291 277
308 309 306 295 296 295 294 297 300 301 305 301 302 305 306 304 309 317 319 320 319 316 300 290 277 270 264
307 305 303 298 302 298 298 296 300 302 307 305 307 308 305 308 312 321 316 323 322 308 300 297 290 280 273
306 305 295 294 300 298 297 294 297 302 306 308 306 305 302 305 314 322 317 323 305 300 303 297 293 300 300
312 310 306 300 298 294 291 290 293 295 299 304 306 303 302 309 316 322 311 319 323 317 309 314 315 314 290
309 306 303 299 296 291 293 293 287 286 295 306 304 298 302 308 320 317 316 316 314 314 321 319 319 308 308
304 306 307 291 289 288 286 288 291 286 289 301 301 298 305 313 322 323 326 313 313 330 329 325 324 318 320
307 307 312 316 308 301 293 278 279 279 293 307 296 301 309 320 325 323 311 308 315 331 332 331 328 329 326
325 322 320 320 312 306 300 286 269 265 290 309 298 307 317 324 332 328 320 326 337 334 335 341 339 342 341